Location: Arrakis Observatory
(44.1122°N, 95.7153°W)
Time: 04:33:12
(UTC-06:00)

Daily predictions for brighter satellites

Satellite Brightness Start Highest point End
(mag) Time Altitude Azimuth Time Altitude Azimuth Time Altitude Azimuth
CENTAUR R/B 3.4 04:27:39 42° NNE 04:27:39 42° NNE 04:32:13 10° NE
Cosmos 2369 Rocket 4.2 04:28:50 19° NNE 04:30:48 23° NE 04:35:15 10° E
Lacrosse 5 3.8 04:34:49 22° SE 04:36:07 24° ESE 04:40:11 10° ENE
Meteor 1-18 Rocket 4.5 04:47:22 70° SE 04:47:22 70° SE 04:52:44 10° SSE
COSMO-SKYMED 1 4.3 04:48:24 10° SE 04:52:11 30° ENE 04:53:19 26° NE
Meteor 1-20 Rocket 4.4 04:49:52 10° S 04:55:22 65° E 05:00:49 10° NNE
Cosmos 2333 Rocket 4.4 05:04:12 12° N 05:04:12 12° N 05:04:46 10° N
Lacrosse 5 rocket 4.0 05:06:47 13° NNE 05:06:47 13° NNE 05:07:30 10° NNE
Tiangong 2 3.7 05:12:41 21° E 05:12:41 21° E 05:13:55 10° E
Cosmos 1943 Rocket 4.2 05:09:02 11° N 05:13:03 22° NE 05:17:19 10° E
Cosmos 1633 4.3 05:13:10 10° SSE 05:16:26 32° E 05:19:42 10° NNE
SL-08 ROCKET BODY 4.2 05:11:43 10° S 05:17:40 82° W 05:23:35 10° N
SL-16 R/B 3.1 05:22:04 32° NNW 05:22:04 32° NNW 05:25:34 10° NNE
Cosmos 2327 Rocket 4.4 05:14:31 10° S 05:20:54 83° W 05:27:14 10° N
Cosmos 2074 Rocket 3.9 05:23:59 10° SSW 05:30:13 68° W 05:36:28 10° N
Cosmos 1602 4.3 05:26:24 10° S 05:30:16 57° E 05:34:11 10° NNE
Cosmos 2056 Rocket 3.3 05:33:57 49° NW 05:35:17 73° WSW 05:40:22 10° SSE
ADEOS II 4.0 05:31:54 10° N 05:32:51 15° N 05:32:51 15° N
Meteor 1-25 Rocket 4.4 05:32:19 10° SSW 05:37:58 50° WNW 05:43:35 10° N
SKYMED 2 3.4 05:35:47 10° SSE 05:40:07 86° WSW 05:41:57 35° NNW
Meteor 1-11 Rocket 4.1 05:34:37 10° S 05:40:25 69° E 05:46:07 10° NNE
Abrixas rocket 2.9 05:43:15 46° S 05:43:40 50° SSE 05:46:57 10° ENE
Cosmos 1346 Rocket 4.1 05:47:10 26° SSW 05:47:10 26° SSW 05:49:09 10° SSW
Meteor 1-28 Rocket 3.8 05:42:34 10° SSE 05:46:18 57° ENE 05:49:17 15° N
Cosmos 2184 Rocket 4.0 05:41:27 10° SSW 05:47:26 52° WNW 05:53:30 10° N
Cosmos 1624 Rocket 4.1 05:47:20 40° WNW 05:48:47 52° WSW 05:53:55 10° S
Ariane Rocket 3.3 05:44:17 10° NNE 05:49:20 67° ESE 05:54:22 10° S
Meteor 1-13 Rocket 4.2 05:43:57 10° NNW 05:49:55 75° W 05:55:50 10° S
Cosmos 2237 Rocket 4.2 05:52:11 12° NNW 05:52:11 12° NNW 05:53:00 10° N
DMSP B5D1-3 4.4 05:47:24 10° SSE 05:52:33 83° WSW 05:57:45 10° NNW
Cosmos 1371 Rocket 4.5 05:53:08 37° W 05:53:44 38° WSW 05:58:33 10° SSW
SJ-6F 4.5 05:51:21 10° N 05:55:19 49° WNW 05:59:14 10° SSW
USA 215 3.2 05:50:08 10° NE 05:56:42 87° NW 06:03:14 10° SW
Cosmos 1340 4.4 05:53:51 10° N 05:57:19 33° ENE 06:00:45 10° SE
Radarsat Rocket 4.4 05:52:02 10° NNE 05:59:05 78° WNW 06:07:02 10° SSW
CSL-04 Rocket 4.1 05:54:37 10° NNE 06:00:11 69° ESE 06:05:39 10° S
Cosmos 2154 Rocket 3.9 05:56:58 10° SSW 06:03:10 74° W 06:09:23 10° N
CZ-2C R/B 4.5 05:58:52 10° NNE 06:03:26 31° E 06:07:54 10° SSE
Cosmos 1025 Rocket 3.1 06:01:30 10° N 06:05:56 82° E 06:10:16 10° S
Meteor 2-4 Rocket 3.6 06:02:46 10° N 06:08:18 87° W 06:13:58 10° S
IDEFIX/ARIANE 42P 4.4 06:05:21 10° NNE 06:10:04 34° E 06:14:46 10° SSE
Cosmos 2369 Rocket 2.2 06:10:40 15° NNW 06:15:21 66° WSW 06:20:58 10° SSE
Cosmos 44 Rocket 3.4 06:10:45 10° SW 06:15:52 60° NW 06:20:56 10° NNE
CENTAUR R/B 3.8 06:14:52 20° NW 06:17:11 24° NNW 06:22:55 10° NNE
CZ-4 R/B 2.5 06:13:52 10° NNE 06:17:41 46° E 06:21:26 10° S
Cosmos 1603 4.1 06:12:46 10° SW 06:18:05 39° WNW 06:23:23 10° NNE
Lacrosse 5 1.8 06:14:07 13° WSW 06:18:42 67° NW 06:23:48 10° NE
Meteor 1-5 Rocket 4.4 06:14:28 10° S 06:19:47 69° E 06:25:04 10° NNE
Cosmos 1536 2.8 06:17:17 10° SSW 06:21:13 58° W 06:25:12 10° N
Okean 1 Rocket 3.5 06:18:09 10° SW 06:22:16 39° WNW 06:26:24 10° N
Cosmos 1900 4.3 06:18:59 15° NNW 06:23:05 86° ENE 06:28:01 10° SSE
ATLAS 5 CENTAUR R/B 4.3 06:21:28 10° N 06:24:03 13° NNE 06:26:44 10° NE
Cosmos 1452 Rocket 3.5 06:19:31 11° NNW 06:24:34 64° WSW 06:29:46 10° S
SL-24 DEB 4.3 06:19:58 10° S 06:24:42 60° W 06:29:27 10° NNW
Cosmos 1544 Rocket 4.2 06:21:07 10° S 06:25:24 59° E 06:29:44 10° NNE
COSMO-SKYMED 1 3.5 06:24:40 10° SSW 06:28:19 26° W 06:30:31 18° NW
SL-8 Rocket 4.0 06:28:12 10° S 06:34:28 90° W 06:40:44 10° N
IRS-1A Rocket 4.3 06:31:33 10° NNE 06:37:17 86° WNW 06:43:05 10° SSW
Lacrosse 4 Rocket 2.1 06:34:06 10° NNW 06:38:11 52° ENE 06:42:10 10° SE
Okean 1-7 Rocket 4.5 06:36:19 11° NNW 06:39:56 28° W 06:43:39 10° SSW
ATLAS 3B R/B 4.5 06:36:10 10° NNW 06:41:03 19° NNE 06:45:45 10° ENE
Cosmos 1943 3.3 06:36:30 10° SW 06:41:59 53° WNW 06:47:31 10° NNE
Cosmos 839 Rocket 4.1 06:38:29 10° NNW 06:45:13 88° NE 06:51:21 10° SSE
Lacrosse 5 rocket 3.5 06:42:45 10° NNW 06:45:22 16° N 06:48:04 10° NE
Cosmos 2366 rocket 4.2 06:40:09 10° S 06:46:26 83° E 06:52:49 10° N
Tiangong 2 1.8 06:44:45 14° W 06:47:12 44° SSW 06:50:14 10° ESE
Cosmos 1892 Rocket 3.6 06:43:29 10° NNW 06:47:54 62° W 06:52:19 10° S
Cosmos 1959 Rocket 4.4 06:42:33 10° S 06:48:40 84° W 06:54:48 10° N
GRACE-2 4.4 06:46:15 10° NNW 06:48:52 37° W 06:51:28 10° SSW
GRACE-1 4.4 06:46:41 10° NNW 06:49:17 36° W 06:51:53 10° SSW
Cosmos 1633 4.1 06:49:11 10° WSW 06:51:33 16° WNW 06:53:55 10° NNW
Cosmos 2218 Rocket 4.0 06:47:00 10° SSW 06:53:24 79° W 06:59:50 10° N
Fregat R/B Cluster 11 4.5 06:47:25 10° SW 06:53:54 56° NW 06:57:27 10° NNE
Cosmos 1943 Rocket 2.2 06:51:49 10° NNW 06:57:16 64° WSW 07:02:42 10° S
PAYLOAD A 4.2 06:54:37 10° N 06:59:54 59° WNW 07:05:13 10° SSW
Cosmos 1626 Rocket 4.0 06:57:13 10° N 07:01:38 66° E 07:06:00 10° SSE
Helios 1B rocket 2.5 06:59:40 10° S 07:03:45 59° WSW 07:07:53 10° NNW
Cosmos 1269 Rocket 4.0 06:59:14 10° SSW 07:04:29 70° WNW 07:09:48 10° NNE
Cosmos 1975 3.0 07:01:32 10° S 07:05:37 84° E 07:09:45 10° N
Cosmos 158 Rocket 4.3 07:01:38 10° SSW 07:06:55 80° ESE 07:12:19 10° NNE
MSX 4.1 07:06:38 10° NNE 07:12:24 78° ESE 07:18:08 10° S
SMAP 3.1 07:09:11 10° N 07:13:47 60° WNW 07:18:21 10° SSW
Cosmos 1455 Rocket 3.2 07:10:28 10° SSW 07:14:40 51° WNW 07:18:56 10° N
Cosmos 44 4.0 07:09:48 10° WSW 07:14:43 36° NW 07:19:28 10° NNE
Cosmos 1461 3.6 07:10:53 10° SSW 07:15:08 61° ESE 07:19:16 10° NE
USA 229 DEB 3.8 07:08:36 10° SW 07:15:26 64° NW 07:22:24 10° NNE
USA 229 3.8 07:08:42 10° SW 07:15:32 65° NW 07:22:30 10° NNE
Cosmos 1727 Rocket 4.0 07:10:33 10° NNW 07:16:40 64° W 07:22:46 10° S
CZ-4C R/B 4.2 07:12:18 10° NNW 07:18:03 28° NNE 07:24:20 10° E
